Year,Month,Day,Hour,Minute,Value (Times are PST for insolation in W/m^2)
2022,07,08,00,00,0.00
2022,07,08,00,01,0.00
2022,07,08,00,02,0.00
2022,07,08,00,03,0.00
2022,07,08,00,04,0.00
2022,07,08,00,05,0.00
2022,07,08,00,06,0.00
2022,07,08,00,07,0.00
2022,07,08,00,08,0.00
2022,07,08,00,09,0.00
2022,07,08,00,10,0.00
2022,07,08,00,11,0.00
2022,07,08,00,12,0.00
2022,07,08,00,13,0.00
2022,07,08,00,14,0.00
2022,07,08,00,15,0.00
2022,07,08,00,16,0.00
2022,07,08,00,17,0.00
2022,07,08,00,18,0.00
2022,07,08,00,19,0.00
2022,07,08,00,20,0.00
2022,07,08,00,21,0.00
2022,07,08,00,22,0.00
2022,07,08,00,23,0.00
2022,07,08,00,24,0.00
2022,07,08,00,25,0.00
2022,07,08,00,26,0.00
2022,07,08,00,27,0.00
2022,07,08,00,28,0.00
2022,07,08,00,29,0.00
2022,07,08,00,30,0.00
2022,07,08,00,31,0.00
2022,07,08,00,32,0.00
2022,07,08,00,33,0.00
2022,07,08,00,34,0.00
2022,07,08,00,35,0.00
2022,07,08,00,36,0.00
2022,07,08,00,37,0.00
2022,07,08,00,38,0.00
2022,07,08,00,39,0.00
2022,07,08,00,40,0.00
2022,07,08,00,41,0.00
2022,07,08,00,42,0.00
2022,07,08,00,43,0.00
2022,07,08,00,44,0.00
2022,07,08,00,45,0.00
2022,07,08,00,46,0.00
2022,07,08,00,47,0.00
2022,07,08,00,48,0.00
2022,07,08,00,49,0.00
2022,07,08,00,50,0.00
2022,07,08,00,51,0.00
2022,07,08,00,52,0.00
2022,07,08,00,53,0.00
2022,07,08,00,54,0.00
2022,07,08,00,55,0.00
2022,07,08,00,56,0.00
2022,07,08,00,57,0.00
2022,07,08,00,58,0.00
2022,07,08,00,59,0.00
2022,07,08,01,00,0.00
2022,07,08,01,01,0.00
2022,07,08,01,02,0.00
2022,07,08,01,03,0.00
2022,07,08,01,04,0.00
2022,07,08,01,05,0.00
2022,07,08,01,06,0.00
2022,07,08,01,07,0.00
2022,07,08,01,08,0.00
2022,07,08,01,09,0.00
2022,07,08,01,10,0.00
2022,07,08,01,11,0.00
2022,07,08,01,12,0.00
2022,07,08,01,13,0.00
2022,07,08,01,14,0.00
2022,07,08,01,15,0.00
2022,07,08,01,16,0.00
2022,07,08,01,17,0.00
2022,07,08,01,18,0.00
2022,07,08,01,19,0.00
2022,07,08,01,20,0.00
2022,07,08,01,21,0.00
2022,07,08,01,22,0.00
2022,07,08,01,23,0.00
2022,07,08,01,24,0.00
2022,07,08,01,25,0.00
2022,07,08,01,26,0.00
2022,07,08,01,27,0.00
2022,07,08,01,28,0.00
2022,07,08,01,29,0.00
2022,07,08,01,30,0.00
2022,07,08,01,31,0.00
2022,07,08,01,32,0.00
2022,07,08,01,33,0.00
2022,07,08,01,34,0.00
2022,07,08,01,35,0.00
2022,07,08,01,36,0.00
2022,07,08,01,37,0.00
2022,07,08,01,38,0.00
2022,07,08,01,39,0.00
2022,07,08,01,40,0.00
2022,07,08,01,41,0.00
2022,07,08,01,42,0.00
2022,07,08,01,43,0.00
2022,07,08,01,44,0.00
2022,07,08,01,45,0.00
2022,07,08,01,46,0.00
2022,07,08,01,47,0.00
2022,07,08,01,48,0.00
2022,07,08,01,49,0.00
2022,07,08,01,50,0.00
2022,07,08,01,51,0.00
2022,07,08,01,52,0.00
2022,07,08,01,53,0.00
2022,07,08,01,54,0.00
2022,07,08,01,55,0.00
2022,07,08,01,56,0.00
2022,07,08,01,57,0.00
2022,07,08,01,58,0.00
2022,07,08,01,59,0.00
2022,07,08,02,00,0.00
2022,07,08,02,01,0.00
2022,07,08,02,02,0.00
2022,07,08,02,03,0.00
2022,07,08,02,04,0.00
2022,07,08,02,05,0.00
2022,07,08,02,06,0.00
2022,07,08,02,07,0.00
2022,07,08,02,08,0.00
2022,07,08,02,09,0.00
2022,07,08,02,10,0.00
2022,07,08,02,11,0.00
2022,07,08,02,12,0.00
2022,07,08,02,13,0.00
2022,07,08,02,14,0.00
2022,07,08,02,15,0.00
2022,07,08,02,16,0.00
2022,07,08,02,17,0.00
2022,07,08,02,18,0.00
2022,07,08,02,19,0.00
2022,07,08,02,20,0.00
2022,07,08,02,21,0.00
2022,07,08,02,22,0.00
2022,07,08,02,23,0.00
2022,07,08,02,24,0.00
2022,07,08,02,25,0.00
2022,07,08,02,26,0.00
2022,07,08,02,27,0.00
2022,07,08,02,28,0.00
2022,07,08,02,29,0.00
2022,07,08,02,30,0.00
2022,07,08,02,31,0.00
2022,07,08,02,32,0.00
2022,07,08,02,33,0.00
2022,07,08,02,34,0.00
2022,07,08,02,35,0.00
2022,07,08,02,36,0.00
2022,07,08,02,37,0.00
2022,07,08,02,38,0.00
2022,07,08,02,39,0.00
2022,07,08,02,40,0.00
2022,07,08,02,41,0.00
2022,07,08,02,42,0.00
2022,07,08,02,43,0.00
2022,07,08,02,44,0.00
2022,07,08,02,45,0.00
2022,07,08,02,46,0.00
2022,07,08,02,47,0.00
2022,07,08,02,48,0.00
2022,07,08,02,49,0.00
2022,07,08,02,50,0.00
2022,07,08,02,51,0.00
2022,07,08,02,52,0.00
2022,07,08,02,53,0.00
2022,07,08,02,54,0.00
2022,07,08,02,55,0.00
2022,07,08,02,56,0.00
2022,07,08,02,57,0.00
2022,07,08,02,58,0.00
2022,07,08,02,59,0.00
2022,07,08,03,00,0.00
2022,07,08,03,01,0.00
2022,07,08,03,02,0.00
2022,07,08,03,03,0.00
2022,07,08,03,04,0.00
2022,07,08,03,05,0.00
2022,07,08,03,06,0.00
2022,07,08,03,07,0.00
2022,07,08,03,08,0.00
2022,07,08,03,09,0.00
2022,07,08,03,10,0.00
2022,07,08,03,11,0.00
2022,07,08,03,12,0.00
2022,07,08,03,13,0.00
2022,07,08,03,14,0.00
2022,07,08,03,15,0.00
2022,07,08,03,16,0.00
2022,07,08,03,17,0.00
2022,07,08,03,18,0.00
2022,07,08,03,19,0.00
2022,07,08,03,20,0.00
2022,07,08,03,21,0.00
2022,07,08,03,22,0.00
2022,07,08,03,23,0.00
2022,07,08,03,24,0.00
2022,07,08,03,25,0.00
2022,07,08,03,26,0.00
2022,07,08,03,27,0.00
2022,07,08,03,28,0.00
2022,07,08,03,29,0.00
2022,07,08,03,30,0.00
2022,07,08,03,31,0.00
2022,07,08,03,32,0.00
2022,07,08,03,33,0.00
2022,07,08,03,34,0.00
2022,07,08,03,35,0.00
2022,07,08,03,36,0.00
2022,07,08,03,37,0.00
2022,07,08,03,38,0.00
2022,07,08,03,39,0.00
2022,07,08,03,40,0.00
2022,07,08,03,41,0.00
2022,07,08,03,42,0.00
2022,07,08,03,43,0.00
2022,07,08,03,44,0.00
2022,07,08,03,45,0.00
2022,07,08,03,46,0.00
2022,07,08,03,47,0.00
2022,07,08,03,48,0.00
2022,07,08,03,49,0.00
2022,07,08,03,50,0.00
2022,07,08,03,51,0.00
2022,07,08,03,52,0.00
2022,07,08,03,53,0.00
2022,07,08,03,54,0.00
2022,07,08,03,55,0.00
2022,07,08,03,56,0.00
2022,07,08,03,57,0.00
2022,07,08,03,58,0.00
2022,07,08,03,59,0.00
2022,07,08,04,00,0.00
2022,07,08,04,01,0.00
2022,07,08,04,02,0.00
2022,07,08,04,03,0.00
2022,07,08,04,04,0.00
2022,07,08,04,05,0.00
2022,07,08,04,06,0.00
2022,07,08,04,07,0.00
2022,07,08,04,08,0.00
2022,07,08,04,09,0.00
2022,07,08,04,10,0.00
2022,07,08,04,11,0.00
2022,07,08,04,12,0.00
2022,07,08,04,13,0.00
2022,07,08,04,14,0.00
2022,07,08,04,15,0.00
2022,07,08,04,16,0.00
2022,07,08,04,17,0.00
2022,07,08,04,18,0.00
2022,07,08,04,19,0.00
2022,07,08,04,20,0.00
2022,07,08,04,21,0.00
2022,07,08,04,22,0.00
2022,07,08,04,23,0.00
2022,07,08,04,24,0.00
2022,07,08,04,25,0.00
2022,07,08,04,26,0.00
2022,07,08,04,27,0.00
2022,07,08,04,28,0.00
2022,07,08,04,29,0.00
2022,07,08,04,30,0.00
2022,07,08,04,31,0.00
2022,07,08,04,32,0.00
2022,07,08,04,33,0.00
2022,07,08,04,34,0.00
2022,07,08,04,35,0.00
2022,07,08,04,36,0.00
2022,07,08,04,37,0.00
2022,07,08,04,38,0.00
2022,07,08,04,39,0.00
2022,07,08,04,40,0.00
2022,07,08,04,41,0.00
2022,07,08,04,42,0.00
2022,07,08,04,43,0.00
2022,07,08,04,44,0.00
2022,07,08,04,45,0.00
2022,07,08,04,46,0.00
2022,07,08,04,47,0.00
2022,07,08,04,48,0.00
2022,07,08,04,49,0.00
2022,07,08,04,50,0.00
2022,07,08,04,51,0.00
2022,07,08,04,52,0.00
2022,07,08,04,53,0.00
2022,07,08,04,54,0.00
2022,07,08,04,55,0.00
2022,07,08,04,56,0.00
2022,07,08,04,57,0.00
2022,07,08,04,58,0.00
2022,07,08,04,59,0.00
2022,07,08,05,00,0.00
2022,07,08,05,01,0.00
2022,07,08,05,02,0.00
2022,07,08,05,03,0.00
2022,07,08,05,04,0.00
2022,07,08,05,05,0.00
2022,07,08,05,06,0.00
2022,07,08,05,07,0.00
2022,07,08,05,08,0.00
2022,07,08,05,09,0.00
2022,07,08,05,10,0.00
2022,07,08,05,11,0.00
2022,07,08,06,36,155.00
2022,07,08,06,37,155.50
2022,07,08,06,38,160.00
2022,07,08,06,39,162.00
2022,07,08,06,40,168.50
2022,07,08,06,41,172.50
2022,07,08,06,42,175.10
2022,07,08,06,43,176.00
2022,07,08,06,44,181.90
2022,07,08,06,45,185.70
2022,07,08,06,46,186.00
2022,07,08,06,47,189.30
2022,07,08,06,48,200.00
2022,07,08,06,49,179.80
2022,07,08,06,50,147.30
2022,07,08,06,51,188.40
2022,07,08,06,52,216.90
2022,07,08,06,53,218.00
2022,07,08,06,54,229.90
2022,07,08,06,55,227.00
2022,07,08,06,56,227.00
2022,07,08,06,57,183.70
2022,07,08,06,58,97.00
2022,07,08,06,59,98.80
2022,07,08,07,00,109.10
2022,07,08,07,01,113.00
2022,07,08,07,02,113.00
2022,07,08,07,03,113.00
2022,07,08,07,04,117.00
2022,07,08,07,05,130.60
2022,07,08,07,06,134.00
2022,07,08,07,07,140.30
2022,07,08,07,08,146.50
2022,07,08,07,09,153.20
2022,07,08,07,10,151.80
2022,07,08,07,11,147.70
2022,07,08,07,12,139.00
2022,07,08,07,13,134.30
2022,07,08,07,14,119.10
2022,07,08,07,15,116.00
2022,07,08,07,16,116.00
2022,07,08,07,17,118.80
2022,07,08,07,18,120.00
2022,07,08,07,19,116.60
2022,07,08,07,20,115.80
2022,07,08,07,21,114.40
2022,07,08,07,22,116.70
2022,07,08,07,23,118.80
2022,07,08,07,24,120.00
2022,07,08,07,25,122.80
2022,07,08,07,26,125.00
2022,07,08,07,27,125.00
2022,07,08,07,28,123.10
2022,07,08,07,29,123.20
2022,07,08,07,30,125.00
2022,07,08,07,31,125.00
2022,07,08,07,32,125.00
2022,07,08,07,33,123.90
2022,07,08,07,34,124.30
2022,07,08,07,35,130.30
2022,07,08,07,36,202.70
2022,07,08,07,37,147.20
2022,07,08,07,38,137.00
2022,07,08,07,39,159.60
2022,07,08,07,40,188.70
2022,07,08,07,41,142.00
2022,07,08,07,42,141.40
2022,07,08,07,43,141.00
2022,07,08,07,44,141.00
2022,07,08,07,45,141.00
2022,07,08,07,46,142.00
2022,07,08,07,47,147.40
2022,07,08,07,48,169.00
2022,07,08,07,49,166.40
2022,07,08,07,50,154.50
2022,07,08,07,51,146.00
2022,07,08,07,52,156.30
2022,07,08,07,53,154.30
2022,07,08,07,54,151.00
2022,07,08,07,55,147.10
2022,07,08,07,56,141.80
2022,07,08,07,57,141.00
2022,07,08,07,58,141.00
2022,07,08,07,59,142.60
2022,07,08,08,00,148.70
2022,07,08,08,01,151.00
2022,07,08,08,02,149.20
2022,07,08,08,03,151.40
2022,07,08,08,04,155.80
2022,07,08,08,05,154.40
2022,07,08,08,06,153.70
2022,07,08,08,07,155.00
2022,07,08,08,08,155.60
2022,07,08,08,09,166.70
2022,07,08,08,10,172.00
2022,07,08,08,11,167.20
2022,07,08,08,12,173.90
2022,07,08,08,13,211.00
2022,07,08,08,14,211.00
2022,07,08,08,15,211.00
2022,07,08,08,16,207.00
2022,07,08,08,17,204.00
2022,07,08,08,18,188.70
2022,07,08,08,19,183.00
2022,07,08,08,20,183.00
2022,07,08,08,21,183.60
2022,07,08,08,22,186.50
2022,07,08,08,23,189.60
2022,07,08,08,24,192.50
2022,07,08,08,25,195.50
2022,07,08,08,26,201.90
2022,07,08,08,27,209.40
2022,07,08,08,28,215.70
2022,07,08,08,29,210.80
2022,07,08,08,30,207.90
2022,07,08,08,31,202.80
2022,07,08,08,32,200.00
2022,07,08,08,33,199.50
2022,07,08,08,34,199.00
2022,07,08,08,35,202.80
2022,07,08,08,36,205.70
2022,07,08,08,37,210.70
2022,07,08,08,38,211.80
2022,07,08,08,39,217.00
2022,07,08,08,40,221.90
2022,07,08,08,41,226.90
2022,07,08,08,42,231.90
2022,07,08,08,43,237.50
2022,07,08,08,44,240.60
2022,07,08,08,45,245.50
2022,07,08,08,46,248.00
2022,07,08,08,47,248.40
2022,07,08,08,48,249.50
2022,07,08,08,49,247.10
2022,07,08,08,50,246.00
2022,07,08,08,51,252.80
2022,07,08,08,52,245.20
2022,07,08,08,53,237.80
2022,07,08,08,54,266.60
2022,07,08,08,55,245.70
2022,07,08,08,56,244.00
2022,07,08,08,57,240.50
2022,07,08,08,58,233.20
2022,07,08,08,59,232.00
2022,07,08,09,00,234.50
2022,07,08,09,01,227.80
2022,07,08,09,02,223.30
2022,07,08,09,03,221.30
2022,07,08,09,04,223.80
2022,07,08,09,05,227.90
2022,07,08,09,06,232.40
2022,07,08,09,07,239.30
2022,07,08,09,08,243.00
2022,07,08,09,09,253.00
2022,07,08,09,10,259.40
2022,07,08,09,11,260.00
2022,07,08,09,12,257.70
2022,07,08,09,13,254.10
2022,07,08,09,14,251.00
2022,07,08,09,15,246.50
2022,07,08,09,16,238.50
2022,07,08,09,17,232.10
2022,07,08,09,18,223.20
2022,07,08,09,19,214.20
2022,07,08,09,20,202.10
2022,07,08,09,21,192.30
2022,07,08,09,22,184.80
2022,07,08,09,23,178.30
2022,07,08,09,24,170.70
2022,07,08,09,25,164.10
2022,07,08,09,26,162.00
2022,07,08,09,27,162.00
2022,07,08,09,28,160.20
2022,07,08,09,29,170.30
2022,07,08,09,30,184.20
2022,07,08,09,31,202.00
2022,07,08,09,32,223.60
2022,07,08,09,33,245.50
2022,07,08,09,34,263.80
2022,07,08,09,35,280.40
2022,07,08,09,36,285.00
2022,07,08,09,37,332.70
2022,07,08,09,38,333.60
2022,07,08,09,39,343.00
2022,07,08,09,40,343.00
2022,07,08,09,41,341.30
2022,07,08,09,42,339.00
2022,07,08,09,43,339.00
2022,07,08,09,44,344.40
2022,07,08,09,45,349.40
2022,07,08,09,46,363.40
2022,07,08,09,47,365.30
2022,07,08,09,48,366.70
2022,07,08,09,49,382.70
2022,07,08,09,50,386.00
2022,07,08,09,51,397.60
2022,07,08,09,52,430.70
2022,07,08,09,53,392.80
2022,07,08,09,54,381.00
2022,07,08,09,55,374.00
2022,07,08,09,56,385.60
2022,07,08,09,57,399.10
2022,07,08,09,58,404.40
2022,07,08,09,59,391.90
2022,07,08,10,00,391.30
2022,07,08,10,01,410.40
2022,07,08,10,02,406.50
2022,07,08,10,03,406.10
2022,07,08,10,04,416.30
2022,07,08,10,05,449.80
2022,07,08,10,06,492.00
2022,07,08,10,07,603.60
2022,07,08,10,08,796.00
2022,07,08,10,09,838.00
2022,07,08,10,10,838.00
2022,07,08,10,11,838.00
2022,07,08,10,12,838.00
2022,07,08,10,13,755.80
2022,07,08,10,14,445.00
2022,07,08,10,15,461.40
2022,07,08,10,16,423.70
2022,07,08,10,17,421.30
2022,07,08,10,18,417.00
2022,07,08,10,19,417.00
2022,07,08,10,20,417.90
2022,07,08,10,21,448.00
2022,07,08,10,22,448.50
2022,07,08,10,23,440.90
2022,07,08,10,24,434.90
2022,07,08,10,25,448.00
2022,07,08,10,26,448.00
2022,07,08,10,27,448.00
2022,07,08,10,28,448.00
2022,07,08,10,29,448.00
2022,07,08,10,30,455.00
2022,07,08,10,31,472.10
2022,07,08,10,32,429.00
2022,07,08,10,33,485.00
2022,07,08,10,34,541.00
2022,07,08,10,35,541.00
2022,07,08,10,36,541.00
2022,07,08,10,37,756.10
2022,07,08,10,38,763.30
2022,07,08,10,39,613.00
2022,07,08,10,40,538.10
2022,07,08,10,41,391.40
2022,07,08,10,42,372.50
2022,07,08,10,43,376.40
2022,07,08,10,44,384.50
2022,07,08,10,45,394.70
2022,07,08,10,46,419.40
2022,07,08,10,47,465.50
2022,07,08,10,48,453.90
2022,07,08,10,49,430.20
2022,07,08,10,50,429.00
2022,07,08,10,51,446.60
2022,07,08,10,52,447.30
2022,07,08,10,53,433.50
2022,07,08,10,54,439.50
2022,07,08,10,55,441.00
2022,07,08,10,56,450.50
2022,07,08,10,57,510.90
2022,07,08,10,58,527.00
2022,07,08,10,59,527.00
2022,07,08,11,00,527.00
2022,07,08,11,01,507.80
2022,07,08,11,02,530.60
2022,07,08,11,03,627.50
2022,07,08,11,04,658.90
2022,07,08,11,05,622.00
2022,07,08,11,06,579.40
2022,07,08,11,07,487.00
2022,07,08,11,08,502.00
2022,07,08,11,09,504.40
2022,07,08,11,10,496.00
2022,07,08,11,11,504.50
2022,07,08,11,12,496.70
2022,07,08,11,13,482.00
2022,07,08,11,14,482.00
2022,07,08,11,15,481.30
2022,07,08,11,16,472.70
2022,07,08,11,17,458.00
2022,07,08,11,18,449.80
2022,07,08,11,19,451.00
2022,07,08,11,20,452.00
2022,07,08,11,21,459.20
2022,07,08,11,22,471.60
2022,07,08,11,23,437.90
2022,07,08,11,24,423.20
2022,07,08,11,25,410.90
2022,07,08,11,26,399.20
2022,07,08,11,27,397.00
2022,07,08,11,28,401.80
2022,07,08,11,29,419.40
2022,07,08,11,30,408.20
2022,07,08,11,31,410.00
2022,07,08,11,32,420.70
2022,07,08,11,33,432.50
2022,07,08,11,34,436.60
2022,07,08,11,35,462.60
2022,07,08,11,36,472.60
2022,07,08,11,37,509.00
2022,07,08,11,38,490.20
2022,07,08,11,39,501.40
2022,07,08,11,40,571.20
2022,07,08,11,41,635.00
2022,07,08,11,42,635.00
2022,07,08,11,43,635.00
2022,07,08,11,44,635.00
2022,07,08,11,45,635.00
2022,07,08,11,46,545.00
2022,07,08,11,47,523.30
2022,07,08,11,48,525.50
2022,07,08,11,49,565.80
2022,07,08,11,50,531.00
2022,07,08,11,51,515.20
2022,07,08,11,52,508.50
2022,07,08,11,53,504.00
2022,07,08,11,54,567.40
2022,07,08,11,55,610.00
2022,07,08,11,56,633.10
2022,07,08,11,57,772.00
2022,07,08,11,58,772.00
2022,07,08,11,59,667.20
2022,07,08,12,00,552.00
2022,07,08,12,01,552.00
2022,07,08,12,02,552.00
2022,07,08,12,03,552.00
2022,07,08,12,04,724.40
2022,07,08,12,05,745.00
2022,07,08,12,06,745.00
2022,07,08,12,07,745.00
2022,07,08,12,08,745.00
2022,07,08,12,09,669.00
2022,07,08,12,10,666.60
2022,07,08,12,11,631.00
2022,07,08,12,12,627.60
2022,07,08,12,13,791.00
2022,07,08,12,14,830.10
2022,07,08,12,15,928.00
2022,07,08,12,16,928.00
2022,07,08,12,17,720.10
2022,07,08,12,18,550.00
2022,07,08,12,19,1124.50
2022,07,08,12,20,1304.00
2022,07,08,12,21,1253.60
2022,07,08,12,22,749.00
2022,07,08,12,23,749.00
2022,07,08,12,24,749.00
2022,07,08,12,25,741.70
2022,07,08,12,26,735.00
2022,07,08,12,27,735.00
2022,07,08,12,28,579.50
2022,07,08,12,29,574.60
2022,07,08,12,30,577.00
2022,07,08,12,31,577.00
2022,07,08,12,32,551.50
2022,07,08,12,33,522.00
2022,07,08,12,34,543.80
2022,07,08,12,35,599.20
2022,07,08,12,36,631.00
2022,07,08,12,37,631.00
2022,07,08,12,38,631.00
2022,07,08,12,39,631.00
2022,07,08,12,40,599.90
2022,07,08,12,41,533.40
2022,07,08,12,42,532.10
2022,07,08,12,43,497.00
2022,07,08,12,44,497.00
2022,07,08,12,45,497.00
2022,07,08,12,46,497.00
2022,07,08,12,47,495.70
2022,07,08,12,48,485.50
2022,07,08,12,49,499.20
2022,07,08,12,50,551.20
2022,07,08,12,51,543.00
2022,07,08,12,52,501.60
2022,07,08,12,53,503.00
2022,07,08,12,54,503.00
2022,07,08,12,55,503.00
2022,07,08,12,56,529.10
2022,07,08,12,57,666.50
2022,07,08,12,58,637.40
2022,07,08,12,59,645.00
2022,07,08,13,00,673.00
2022,07,08,13,01,694.00
2022,07,08,13,02,694.00
2022,07,08,13,03,694.00
2022,07,08,13,04,694.00
2022,07,08,13,05,719.00
2022,07,08,13,06,819.00
2022,07,08,13,07,734.70
2022,07,08,13,08,569.50
2022,07,08,13,09,571.80
2022,07,08,13,10,558.00
2022,07,08,13,11,582.00
2022,07,08,13,12,589.00
2022,07,08,13,13,643.00
2022,07,08,13,14,971.80
2022,07,08,13,15,986.00
2022,07,08,13,16,986.00
2022,07,08,13,17,834.30
2022,07,08,13,18,724.00
2022,07,08,13,19,724.00
2022,07,08,13,20,752.80
2022,07,08,13,21,773.30
2022,07,08,13,22,838.40
2022,07,08,13,23,773.80
2022,07,08,13,24,729.00
2022,07,08,13,25,731.60
2022,07,08,13,26,735.00
2022,07,08,13,27,735.00
2022,07,08,13,28,735.00
2022,07,08,13,29,1253.40
2022,07,08,13,30,1258.20
2022,07,08,13,31,805.20
2022,07,08,13,32,793.00
2022,07,08,13,33,745.40
2022,07,08,13,34,668.00
2022,07,08,13,35,675.20
2022,07,08,13,36,685.00
2022,07,08,13,37,748.50
2022,07,08,13,38,682.10
2022,07,08,13,39,737.00
2022,07,08,13,40,715.80
2022,07,08,13,41,675.10
2022,07,08,13,42,704.70
2022,07,08,13,43,643.80
2022,07,08,13,44,661.00
2022,07,08,13,45,623.80
2022,07,08,13,46,625.40
2022,07,08,13,47,628.00
2022,07,08,13,48,650.40
2022,07,08,13,49,733.40
2022,07,08,13,50,717.00
2022,07,08,13,51,717.00
2022,07,08,13,52,717.00
2022,07,08,13,53,717.00
2022,07,08,13,54,713.00
2022,07,08,13,55,712.00
2022,07,08,13,56,630.30
2022,07,08,13,57,626.00
2022,07,08,13,58,768.50
2022,07,08,13,59,1030.30
2022,07,08,14,00,1044.00
2022,07,08,14,01,1044.00
2022,07,08,14,02,1044.00
2022,07,08,14,03,1044.00
2022,07,08,14,04,1028.80
2022,07,08,14,05,724.00
2022,07,08,14,06,724.00
2022,07,08,14,07,724.00
2022,07,08,14,08,659.00
2022,07,08,14,09,594.00
2022,07,08,14,10,594.00
2022,07,08,14,11,617.00
2022,07,08,14,12,566.10
2022,07,08,14,13,535.00
2022,07,08,14,14,565.20
2022,07,08,14,15,629.70
2022,07,08,14,16,679.00
2022,07,08,14,17,716.40
2022,07,08,14,18,747.00
2022,07,08,14,19,587.70
2022,07,08,14,20,522.40
2022,07,08,14,21,588.50
2022,07,08,14,22,506.00
2022,07,08,14,23,545.80
2022,07,08,14,24,652.00
2022,07,08,14,25,652.00
2022,07,08,14,26,652.00
2022,07,08,14,27,652.00
2022,07,08,14,28,652.00
2022,07,08,14,29,886.00
2022,07,08,14,30,912.00
2022,07,08,14,31,912.00
2022,07,08,14,32,912.00
2022,07,08,14,33,912.00
2022,07,08,14,34,912.00
2022,07,08,14,35,839.20
2022,07,08,14,36,800.00
2022,07,08,14,37,800.00
2022,07,08,14,38,800.00
2022,07,08,14,39,964.00
2022,07,08,14,40,945.40
2022,07,08,14,41,901.30
2022,07,08,14,42,914.60
2022,07,08,14,43,918.00
2022,07,08,14,44,914.00
2022,07,08,14,45,906.90
2022,07,08,14,46,904.00
2022,07,08,14,47,903.50
2022,07,08,14,48,893.00
2022,07,08,14,49,892.00
2022,07,08,14,50,891.40
2022,07,08,14,51,853.10
2022,07,08,14,52,863.00
2022,07,08,14,53,943.00
2022,07,08,14,54,962.00
2022,07,08,14,55,962.00
2022,07,08,14,56,886.00
2022,07,08,14,57,886.00
2022,07,08,14,58,886.00
2022,07,08,14,59,902.00
2022,07,08,15,00,932.50
2022,07,08,15,01,937.00
2022,07,08,15,02,937.00
2022,07,08,15,03,937.00
2022,07,08,15,04,967.50
2022,07,08,15,05,969.00
2022,07,08,15,06,969.00
2022,07,08,15,07,928.40
2022,07,08,15,08,850.00
2022,07,08,15,09,845.20
2022,07,08,15,10,839.90
2022,07,08,15,11,839.50
2022,07,08,15,12,840.00
2022,07,08,15,13,840.00
2022,07,08,15,14,839.60
2022,07,08,15,15,838.70
2022,07,08,15,16,833.60
2022,07,08,15,17,824.00
2022,07,08,15,18,850.60
2022,07,08,15,19,839.20
2022,07,08,15,20,865.60
2022,07,08,15,21,874.00
2022,07,08,15,22,858.00
2022,07,08,15,23,853.20
2022,07,08,15,24,838.70
2022,07,08,15,25,838.60
2022,07,08,15,26,838.60
2022,07,08,15,27,841.20
2022,07,08,15,28,842.00
2022,07,08,15,29,832.60
2022,07,08,15,30,831.20
2022,07,08,15,31,835.40
2022,07,08,15,32,837.00
2022,07,08,15,33,832.80
2022,07,08,15,34,827.00
2022,07,08,15,35,831.00
2022,07,08,15,36,834.40
2022,07,08,15,37,843.50
2022,07,08,15,38,846.00
2022,07,08,15,39,721.00
2022,07,08,15,40,673.70
2022,07,08,15,41,461.00
2022,07,08,15,42,461.00
2022,07,08,15,43,461.00
2022,07,08,15,44,461.00
2022,07,08,15,45,461.00
2022,07,08,15,46,461.00
2022,07,08,15,47,484.70
2022,07,08,15,48,412.30
2022,07,08,15,49,328.50
2022,07,08,15,50,327.00
2022,07,08,15,51,327.00
2022,07,08,15,52,327.00
2022,07,08,15,53,328.30
2022,07,08,15,54,336.30
2022,07,08,15,55,344.90
2022,07,08,15,56,359.80
2022,07,08,15,57,390.30
2022,07,08,15,58,410.00
2022,07,08,15,59,398.60
2022,07,08,16,00,389.80
2022,07,08,16,01,396.00
2022,07,08,16,02,396.00
2022,07,08,16,03,396.00
2022,07,08,16,04,445.40
2022,07,08,16,05,441.70
2022,07,08,16,06,448.00
2022,07,08,16,07,448.00
2022,07,08,16,08,448.00
2022,07,08,16,09,437.10
2022,07,08,16,10,429.00
2022,07,08,16,11,439.00
2022,07,08,16,12,443.00
2022,07,08,16,13,457.60
2022,07,08,16,14,593.60
2022,07,08,16,15,640.00
2022,07,08,16,16,683.60
2022,07,08,16,17,749.00
2022,07,08,16,18,749.00
2022,07,08,16,19,749.00
2022,07,08,16,20,749.00
2022,07,08,16,21,749.00
2022,07,08,16,22,874.00
2022,07,08,16,23,822.10
2022,07,08,16,24,656.00
2022,07,08,16,25,736.00
2022,07,08,16,26,856.00
2022,07,08,16,27,856.00
2022,07,08,16,28,856.00
2022,07,08,16,29,856.00
2022,07,08,16,30,851.40
2022,07,08,16,31,767.30
2022,07,08,16,32,763.00
2022,07,08,16,33,763.00
2022,07,08,16,34,757.60
2022,07,08,16,35,751.00
2022,07,08,16,36,751.00
2022,07,08,16,37,735.00
2022,07,08,16,38,719.10
2022,07,08,16,39,700.00
2022,07,08,16,40,688.80
2022,07,08,16,41,678.40
2022,07,08,16,42,675.00
2022,07,08,16,43,672.50
2022,07,08,16,44,670.00
2022,07,08,16,45,670.00
2022,07,08,16,46,664.90
2022,07,08,16,47,663.10
2022,07,08,16,48,659.00
2022,07,08,16,49,658.20
2022,07,08,16,50,654.70
2022,07,08,16,51,652.00
2022,07,08,16,52,652.00
2022,07,08,16,53,652.00
2022,07,08,16,54,652.00
2022,07,08,16,55,643.90
2022,07,08,16,56,641.80
2022,07,08,16,57,637.60
2022,07,08,16,58,635.80
2022,07,08,16,59,634.20
2022,07,08,17,00,631.10
2022,07,08,17,01,629.00
2022,07,08,17,02,629.00
2022,07,08,17,03,626.60
2022,07,08,17,04,626.00
2022,07,08,17,05,622.00
2022,07,08,17,06,621.40
2022,07,08,17,07,618.30
2022,07,08,17,08,616.20
2022,07,08,17,09,614.00
2022,07,08,17,10,611.10
2022,07,08,17,11,610.00
2022,07,08,17,12,606.60
2022,07,08,17,13,605.90
2022,07,08,17,14,604.10
2022,07,08,17,15,599.50
2022,07,08,17,16,599.90
2022,07,08,17,17,598.00
2022,07,08,17,18,596.90
2022,07,08,17,19,596.00
2022,07,08,17,20,596.00
2022,07,08,17,21,594.30
2022,07,08,17,22,593.80
2022,07,08,17,23,591.80
2022,07,08,17,24,591.30
2022,07,08,17,25,590.80
2022,07,08,17,26,590.50
2022,07,08,17,27,592.00
2022,07,08,17,28,592.00
2022,07,08,17,29,603.20
2022,07,08,17,30,606.00
2022,07,08,17,31,606.00
2022,07,08,17,32,519.90
2022,07,08,17,33,202.40
2022,07,08,17,34,216.00
2022,07,08,17,35,216.00
2022,07,08,17,36,216.00
2022,07,08,17,37,216.00
2022,07,08,17,38,216.00
2022,07,08,17,39,216.00
2022,07,08,17,40,216.00
2022,07,08,17,41,216.00
2022,07,08,17,42,234.80
2022,07,08,17,43,261.60
2022,07,08,17,44,255.00
2022,07,08,17,45,255.00
2022,07,08,17,46,535.00
2022,07,08,17,47,561.60
2022,07,08,17,48,636.00
2022,07,08,17,49,636.00
2022,07,08,17,50,592.90
2022,07,08,17,51,485.00
2022,07,08,17,52,485.00
2022,07,08,17,53,431.70
2022,07,08,17,54,403.00
2022,07,08,17,55,277.90
2022,07,08,17,56,261.80
2022,07,08,17,57,262.00
2022,07,08,17,58,262.00
2022,07,08,17,59,262.70
2022,07,08,18,00,280.60
2022,07,08,18,01,316.00
2022,07,08,18,02,284.70
2022,07,08,18,03,308.40
2022,07,08,18,04,244.40
2022,07,08,18,05,221.20
2022,07,08,18,06,215.40
2022,07,08,18,07,211.70
2022,07,08,18,08,207.00
2022,07,08,18,09,202.10
2022,07,08,18,10,198.10
2022,07,08,18,11,194.10
2022,07,08,18,12,189.00
2022,07,08,18,13,183.20
2022,07,08,18,14,177.40
2022,07,08,18,15,174.00
2022,07,08,18,16,174.00
2022,07,08,18,17,171.80
2022,07,08,18,18,167.90
2022,07,08,18,19,165.70
2022,07,08,18,20,162.80
2022,07,08,18,21,160.30
2022,07,08,18,22,156.20
2022,07,08,18,23,155.00
2022,07,08,18,24,155.00
2022,07,08,18,25,155.00